www.pogodaiklimat.ru
ПОГОДА в Покипси
Время
и дата
11:53 27.06
12:40 27.06
12:53 27.06
13:53 27.06
14:53 27.06
15:53 27.06
16:53 27.06
17:53 27.06
18:53 27.06
19:53 27.06
20:53 27.06
21:53 27.06
22:53 27.06
23:53 27.06
00:53 28.06
01:53 28.06
02:53 28.06
03:53 28.06
04:53 28.06
05:53 28.06
06:53 28.06
07:53 28.06
08:53 28.06
09:53 28.06
10:53 28.06
11:53 28.06
12:53 28.06
13:53 28.06
14:53 28.06
15:53 28.06
16:53 28.06
17:53 28.06
18:53 28.06
19:53 28.06
20:53 28.06
21:53 28.06
22:53 28.06
23:53 28.06
00:53 29.06
01:53 29.06
02:53 29.06
03:53 29.06
04:53 29.06
05:53 29.06
06:53 29.06
07:53 29.06
08:53 29.06
09:53 29.06
Ветер
(напр.,м/с)
Видим. Явления Облачность Т
(С)
Тd
(С)
f
(%)
Тe
(С)
Тes
(С)
Комфортность P
(гПа)
Po
(гПа)
Тmin
(С)
Tmax
(С)
R
(мм)
R24
(мм)
S
(см)
ЮЗ 1 16 км 10/8 510 м
[Ac]
+24.4 +22.2 88 +32 +34 очень
душно
1012.5 1006.8
СЗ 1 14 км слабый дождь 8/8 390 м +23.9 +20.6 82 +30 +33 очень
душно
1006.8
С 1 16 км 10/10 390 м +24.4 +20.6 79 +30 +30 очень
душно
1012.4 1006.8 +23.3 +25.0 1.5
СВ 1 16 км 8/8 570 м +25.6 +21.1 76 +32 +36 очень
душно
1012.1 1006.4
С 1 16 км 8/8 1080 м +26.1 +20.0 69 +32 +35 очень
душно
1012.0 1006.4
В 1 16 км 2/2 840 м +26.1 +19.4 67 +32 +40 очень
душно
1011.7 1006.1
С 2 16 км 10/10 1050 м +25.0 +18.9 69 +30 +30 душно 1012.6 1007.1
штиль 0 16 км ясно +25.6 +16.7 58 +29 +35 душно 1013.1 1007.4
С 1 16 км ясно +25.0 +17.2 62 +29 +30 душно 1013.7 1008.1 +24.4 +26.7
С 1 16 км ясно +21.7 +15.6 68 +25 +25 комфорт 1014.7 1009.1
штиль 0 16 км ясно +17.8 +14.4 80 +18 +18 1015.5 1009.8
штиль 0 16 км ясно +17.2 +14.4 84 +17 +17 1015.8 1010.1
штиль 0 16 км ясно +15.6 +13.9 90 +15 +15 1016.3 1010.8
штиль 0 16 км 8/0 2100 м
[Ac]
+15.0 +13.9 93 +15 +15 1016.9 1011.1
штиль 0 16 км 5/0 2100 м
[Ac]
+15.0 +13.3 90 +15 +15 1017.2 1011.5 +15.0 +25.0
штиль 0 16 км 5/0 2700 м
[Ac]
+13.9 +12.8 93 +13 +13 1017.4 1011.8
штиль 0 16 км 10/0 2100 м
[Ac]
+14.4 +12.8 90 +14 +14 1017.8 1012.1
штиль 0 16 км 10/0 2250 м
[Ac]
+14.4 +12.8 90 +14 +14 1018.1 1012.5
штиль 0 16 км 2/0 2700 м
[Ac]
+13.9 +12.2 89 +13 +13 1018.8 1013.2
СЗ 1 16 км 2/0 2250 м
[Ac]
+17.2 +11.7 70 +18 +18 1019.3 1013.5
С 2 16 км 2/0 2400 м
[Ac]
+18.9 +11.1 61 +20 +21 1019.8 1014.2 +13.3 +18.9 1.5
СЗ 1 16 км ясно +19.4 +10.6 57 +21 +25 комфорт 1020.1 1014.5
С 2 16 км 2/2 1200 м +21.1 +10.6 51 +23 +27 комфорт 1020.2 1014.5
С 2 16 км 5/5 1350 м +21.7 +11.7 53 +24 +28 комфорт 1020.6 1014.8
С 2 16 км 5/5 1320 м +22.8 +11.7 50 +25 +31 комфорт 1020.6 1014.8
штиль 0 16 км 2/2 1470 м +23.3 +11.7 48 +26 +46 жарко 1020.7 1014.8
С 2 16 км 10/10 1500 м +23.3 +11.7 48 +26 +26 жарко 1020.7 1015.2 +18.9 +24.4
16 км ясно +25.0 +11.7 43 +26 +52 опасность
солнечного
удара
1020.6 1014.8
нст 1 16 км 5/5 1800 м +24.4 +11.7 45 +26 +34 жарко 1020.4 1014.8
С 2 16 км 8/8 1800 м +25.6 +11.7 42 +27 +29 жарко 1020.0 1014.2
СВ 1 16 км 2/2 1800 м +25.6 +11.1 40 +27 +33 жарко 1019.6 1013.8
штиль 0 16 км ясно +25.6 +10.6 39 +27 +32 жарко 1019.9 1014.2
штиль 0 16 км ясно +24.4 +11.7 45 +26 +28 жарко 1020.3 1014.5 +22.8 +26.1
В 1 16 км ясно +19.4 +13.9 70 +21 +22 комфорт 1020.4 1014.8
штиль 0 16 км ясно +17.2 +13.3 78 +17 +17 1021.2 1015.5
штиль 0 16 км 5/0 2100 м
[Ac]
+16.7 +13.9 84 +17 +17 1021.6 1015.8
штиль 0 16 км ясно +16.1 +13.3 83 +16 +16 1021.7 1016.2
штиль 0 16 км ясно +15.0 +13.3 90 +15 +15 1022.0 1016.2
штиль 0 16 км ясно +13.9 +12.8 93 +13 +13 1022.3 1016.5 +13.9 +24.4
штиль 0 16 км ясно +13.3 +12.2 93 +13 +13 1022.3 1016.5
штиль 0 16 км ясно +12.8 +11.7 93 +12 +12 1022.4 1016.9
штиль 0 16 км ясно +11.7 +10.6 93 +11 +11 1022.7 1016.9
штиль 0 16 км ясно +11.7 +11.1 96 +11 +11 1023.1 1017.2
штиль 0 16 км ясно +13.9 +12.2 89 +13 +14 1023.5 1017.9
штиль 0 16 км ясно +17.2 +13.3 78 +17 +19 1023.5 1017.9 +11.7 +17.2
штиль 0 16 км ясно +20.0 +14.4 70 +22 +28 комфорт 1023.5 1017.9
З 1 16 км 2/0 2100 м
[Ac]
+22.8 +13.3 55 +26 +32 жарко 1023.0 1017.2
ЮЗ 2 16 км ясно +25.0 +13.9 50 +27 +36 жарко 1022.9 1017.2
Местоположение метеостанции Dutchess County Airport: широта 41.6267 долгота -73.8842 высота над уровнем моря 50 м.
В архиве по умолчанию представлена погода в Покипси за последние 1-2 суток. Обновление информации о фактической погоде в базе происходит ежечасно! Архивные данные за месяц целиком и за предыдущие месяцы Вы можете получить, выбрав интересующий диапазон дат из раскрывающегося списка и нажав кнопку "Ввод!".
Внимание! Архив погоды МЕТАР в базе сайта по станциям, не включенным в климатический монитор, хранится не более 60 дней. Нет смысла пытаться выбрать более раннюю дату.
*Определитесь, кто Вы:
Внимание! Время в таблицах - местное (без учета летнего времени). Для получения всемирного времени необходимо вычесть поправку, которая равна -5 ч.
Смотрите также архив погоды в соседних городах и на ближайших метеорологических станциях:
Партнеры нашего сайта:      
Пояснения к столбцам:
  • Ветер - указаны скорость ветра в м/с - средняя за 10 мин, порывы в срок и между сроками (в фигурных скобках) и направление, откуда дует ветер: С - северный,
  • СВ - северо-восточный, В - восточный, ЮВ - юго-восточный, Ю - южный, ЮЗ - юго-западный, З - западный, СЗ - северо-западный.
  • Видимость - горизонтальная дальность видимости в метрах или километрах. При видимости от 1 до 10 км при отсутствии осадков обычно наблюдается дымка, при ухудшении видимости до 1 км и менее - туман. В сухую погоду видимость может ухудшаться дымом, пылью или мглою.
  • Явления - указаны атмосферные явления, наблюдавшиеся в срок или в последний час перед сроком; фигурными скобками обозначены явления, наблюдавшиеся между сроками (за 1-3 часа до срока); квадратными скобками обозначены град или гололедные отложения с указанием их диаметра в мм.
  • Облачность - указаны через наклонную черту общая и нижняя облачность в баллах и высота нижней границы облаков в метрах; квадратными скобками обозначены формы облаков: Ci - перистые, Cs - перисто-слоистые, Cc - перисто-кучевые, Ac - высококучевые, As - высокослоистые, Sc - слоисто-кучевые, Ns - слоисто-дождевые, Cu - кучевые, Cb - кучево-дождевые. Подробнее классификацию облаков см. в Атласе облаков (PDF).
  • T - Температура воздуха - температура, измеренная на высоте 2 м над землей.
  • Td - Температура точки росы - температура, при понижении до которой содержащийся в воздухе водяной пар достигнет насыщения.
  • f - Относительная влажность воздуха - влажноcть воздуха, измеренная на высоте 2 м над землей.
  • Te - Эффективная температура - температура, которую ощущает одетый по сезону человек в тени. Характеристика душности погоды. При расчете учитывается влияние влажности воздуха и скорости ветра на теплоощущения человека.
  • Tes - Эффективная температура на солнце - температура, которую ощущает человек, с поправкой на солнечный нагрев. Характеристика знойности погоды. Зависит от высоты солнца над горизонтом, облачности и скорости ветра. Ночью, в пасмурную погоду, а также при ветре 12 м/с и более поправка равна нулю.
  • P - Атмосферное давление - приведенное к уровню моря атмосферное давление.
  • Po - Атмосферное давление - измеренное на уровне метеостанции атмосферное давление.
  • Tmin - Минимальная температура - минимум температуры воздуха на высоте 2 м над землей.
  • Tmax - Максимальная температура - максимум температуры воздуха на высоте 2 м над землей.
  • R - Количество осадков - Количество выпавших осадков за период времени, мм. При наведении курсора мыши на число - период времени, за который выпало указанное количество осадков.
  • R24 - Количество осадков - Количество выпавших осадков за 24 часа, мм.
  • S - Снежный покров - Высота снежного покрова, см. При наведении курсора мыши на число - состояние снежного покрова и степень покрытия местности в баллах.